Terminal Aerodrome Forecast
Issued by NWS Wakefield, VA

Home | Current Version | Previous Version | Text Only | Print | Product List | Glossary On
Versions: 1 2 3 4 5 6 7 8 9 10 11 12 13
000
FTUS41 KAKQ 261120
TAFRIC
TAF
KRIC 261120Z 2612/2712 20004KT P6SM SKC
     FM261500 02004KT P6SM SCT050
     FM262200 12004KT P6SM SKC=

USA.gov is the U.S. government's official web portal to all federal, state and local government web resources and services.